Weather Roundup
Issued by NWS

Home | Current Version | Previous Version | Text Only | Print | Product List | Glossary On
Versions: 1 2 3 4 5 6 7 8 9 10 11 12 13 14 15 16 17 18 19 20 21 22 23 24 25 26 27 28 29 30 31 32 33 34 35 36 37 38 39 40 41 42 43 44 45 46 47 48 49 50
000
NZUS99 KDVN 050610
HRRCWA
HOURLY WEATHER ROUNDUP
NATIONAL WEATHER SERVICE QUAD CITIES IA IL
100 AM CDT FRI JUN 05 2020

Note: "Fair" indicates few or no clouds below 12,000 feet with
no significant weather and/or obstructions to visibility.

* - These stations are not NWS stations and are not subject to NWS
quality control.  Some stations do not report weather such as fog
and some only report TMP and DP in whole degrees Celsius, which are
then converted to Fahrenheit.

...NORTHEAST IOWA..................................................

CITY           SKY/WX    TMP DP  RH WIND       PRES   REMARKS
DECORAH *      MOCLDY    66  66 100 S9        29.79S
DUBUQUE        CLOUDY    70  66  87 E3        29.84F
6HR MIN TEMP:  69; 6HR MAX TEMP:  82;

INDEPENDENCE * LGT RAIN  68  65  90 NE12      29.84R
OELWEIN *      CLOUDY    68  64  88 E15       29.83F
WATERLOO       LGT RAIN  69  64  84 NE5       29.80S
6HR MIN TEMP:  68; 6HR MAX TEMP:  74; 6HR PCP:  0.38;


...SOUTHWEST AND SOUTH CENTRAL WISCONSIN...........................

CITY           SKY/WX    TMP DP  RH WIND       PRES   REMARKS
BOSCOBEL       MOCLDY    67  65  93 NW3       29.81S
6HR MIN TEMP:  67; 6HR MAX TEMP:  88; 6HR PCP:  0.21;

JANESVILLE *   NOT AVBL
LONE ROCK      PTCLDY    67  65  93 S5        29.81S
6HR MIN TEMP:  67; 6HR MAX TEMP:  85; 6HR PCP:  0.04;

MINERAL POINT* MOCLDY    68  61  77 SE3       29.83S
MONROE *       MOCLDY    73  58  60 S6        29.83R
6HR MIN TEMP:  72; 6HR MAX TEMP:  84;

PRAIRIE DU CHI CLOUDY    68  65  92 N5        29.79F
6HR MIN TEMP:  66; 6HR MAX TEMP:  84; 6HR PCP:  0.04;


...EAST CENTRAL IOWA...............................................

CITY           SKY/WX    TMP DP  RH WIND       PRES   REMARKS
CEDAR RAPIDS   CLOUDY    68  63  84 SE7       29.80F
6HR MIN TEMP:  67; 6HR MAX TEMP:  82; 6HR PCP:  0.02;

CLINTON *      MOCLDY    70  66  87 NE9       29.85R
6HR MIN TEMP:  68; 6HR MAX TEMP:  85; 6HR PCP: TRACE;

DAVENPORT      MOCLDY    69  62  78 SE7       29.85R
6HR MIN TEMP:  67; 6HR MAX TEMP:  80; 6HR PCP:  1.14;

IOWA CITY      CLOUDY    69  63  81 SE7       29.81F
6HR MIN TEMP:  68; 6HR MAX TEMP:  85; 6HR PCP:  0.19;

MARSHALLTOWN   PTCLDY    67  64  90 NE8       29.78F
6HR MIN TEMP:  67; 6HR MAX TEMP:  75; 6HR PCP:  0.01;

MONTICELLO *   CLOUDY    70  66  88 CALM      29.81S
MUSCATINE *    MOCLDY    73  70  88 CALM      29.83S
NEWTON *       CLEAR     73  70  88 S9        29.78F
VINTON *       NOT AVBL

...NORTHWEST ILLINOIS..............................................

CITY           SKY/WX    TMP DP  RH WIND       PRES   REMARKS
FREEPORT *     LGT RAIN  70  63  78 W3        29.84S
6HR MIN TEMP:  69; 6HR MAX TEMP:  82;

MOLINE         MOCLDY    68  61  78 SW7       29.82R
6HR MIN TEMP:  68; 6HR MAX TEMP:  85; 6HR PCP:  0.06;

PERU *         CLOUDY    75  70  84 W9        29.80S
6HR MIN TEMP:  74; 6HR MAX TEMP:  85;

ROCHELLE *     CLOUDY    75  71  89 W10       29.85R
6HR MIN TEMP:  70; 6HR MAX TEMP:  85;

ROCKFORD       CLOUDY    72  63  73 CALM      29.84R
6HR MIN TEMP:  72; 6HR MAX TEMP:  88;

SAVANNA *      CLOUDY    68  64  88 CALM      29.84F
STERLING/R.F.* LGT RAIN  71  66  84 NW8       29.85R
6HR MIN TEMP:  71; 6HR MAX TEMP:  84; 6HR PCP:  0.02;


...SOUTHEAST IOWA AND NORTHEAST MISSOURI...........................

CITY           SKY/WX    TMP DP  RH WIND       PRES   REMARKS
BURLINGTON     CLEAR     71  67  87 S6        29.84S
6HR MIN TEMP:  71; 6HR MAX TEMP:  85;

FAIRFIELD *    CLEAR     73  72  94 S7        29.82F
FORT MADISON * CLEAR     72  68  88 S3        29.85S
KEOKUK *       CLEAR     70  68  94 SW3       29.84S
KIRKSVILLE     CLEAR     67  65  93 S5        29.85F
6HR MIN TEMP:  67; 6HR MAX TEMP:  81;

KNOXVILLE *    CLEAR     73  72  94 S10       29.79F
MT PLEASANT *  CLEAR     72  68  88 S5        29.84S
OTTUMWA        CLEAR     73  67  81 S9        29.79F
6HR MIN TEMP:  72; 6HR MAX TEMP:  86;

WASHINGTON *   PTCLDY    72  72 100 S8        29.81F

...WESTERN ILLINOIS................................................

CITY           SKY/WX    TMP DP  RH WIND       PRES   REMARKS
GALESBURG *    PTCLDY    69  60  72 CALM      29.86F
6HR MIN TEMP:  69; 6HR MAX TEMP:  80;

MACOMB *       CLEAR     69  65  89 CALM      29.86F
6HR MIN TEMP:  68; 6HR MAX TEMP:  80;

PEORIA         PTCLDY    71  67  87 CALM      29.86R
6HR MIN TEMP:  70; 6HR MAX TEMP:  82;

QUINCY         CLEAR     72  65  78 S5        29.85F
6HR MIN TEMP:  68; 6HR MAX TEMP:  80;


END...




USA.gov is the U.S. government's official web portal to all federal, state and local government web resources and services.